| time (UTC) | temp F | wind direction | speed MPH | gust MPH | rain 1hr in | rain 24hr in | rain mn in | humidity % | barometer mb |
| 20260502191212 | 55 | 348 | 2.0 | 6.0 | 0.00 | 0.00 | 0.00 | 48 | 1013.2 |
| 20260502190744 | 55 | 348 | 1.0 | 6.0 | 0.00 | 0.00 | 0.00 | 51 | 1013.3 |
| 20260502190712 | 55 | 348 | 1.0 | 6.0 | 0.00 | 0.00 | 0.00 | 51 | 1013.3 |
| 20260502190212 | 55 | 0 | 0.0 | 3.0 | 0.00 | 0.00 | 0.00 | 52 | 1013.2 |
| 20260502185712 | 55 | 0 | 0.0 | 2.0 | 0.00 | 0.00 | 0.00 | 50 | 1013.2 |
| 20260502185212 | 55 | 0 | 0.0 | 4.0 | 0.00 | 0.00 | 0.00 | 50 | 1013.3 |
| 20260502184712 | 55 | 0 | 0.0 | 4.0 | 0.00 | 0.00 | 0.00 | 47 | 1013.4 |
| 20260502184212 | 55 | 0 | 0.0 | 4.0 | 0.00 | 0.00 | 0.00 | 49 | 1013.4 |
| 20260502183712 | 54 | 0 | 0.0 | 5.0 | 0.00 | 0.00 | 0.00 | 50 | 1013.4 |
| 20260502183212 | 54 | 348 | 1.0 | 9.0 | 0.00 | 0.00 | 0.00 | 50 | 1013.5 |
| 20260502182712 | 54 | 0 | 0.0 | 9.0 | 0.00 | 0.00 | 0.00 | 53 | 1013.5 |
| 20260502182212 | 54 | 0 | 0.0 | 6.0 | 0.00 | 0.00 | 0.00 | 55 | 1013.6 |
| 20260502181713 | 53 | 0 | 0.0 | 12.0 | 0.00 | 0.00 | 0.00 | 53 | 1013.6 |
| 20260502181212 | 54 | 334 | 4.0 | 12.0 | 0.00 | 0.00 | 0.00 | 50 | 1013.7 |
| 20260502170348 | 50 | 0 | 0.0 | 0.0 | 0.00 | 0.00 | 0.00 | 58 | 1014.6 |
| 20260502164348 | 49 | 0 | 0.0 | 5.0 | 0.00 | 0.00 | 0.00 | 58 | 1015.0 |
| 20260502163848 | 49 | 0 | 0.0 | 0.0 | 0.00 | 0.00 | 0.00 | 59 | 1015.3 |
| 20260502163348 | 49 | 0 | 0.0 | 0.0 | 0.00 | 0.00 | 0.00 | 58 | 1015.3 |
| 20260502162848 | 49 | 0 | 0.0 | 0.0 | 0.00 | 0.00 | 0.00 | 58 | 1015.3 |
| 20260502162348 | 49 | 0 | 0.0 | 0.0 | 0.00 | 0.00 | 0.00 | 61 | 1015.2 |
| 20260502161848 | 48 | 0 | 0.0 | 0.0 | 0.00 | 0.00 | 0.00 | 62 | 1015.1 |
| 20260502161348 | 48 | 0 | 0.0 | 3.0 | 0.00 | 0.00 | 0.00 | 60 | 1015.1 |
| 20260502160848 | 47 | 0 | 0.0 | 3.0 | 0.00 | 0.00 | 0.00 | 62 | 1015.2 |
| 20260502160349 | 47 | 0 | 0.0 | 0.0 | 0.00 | 0.00 | 0.00 | 62 | 1015.3 |
| 20260502152037 | 46 | 0 | 0.0 | 3.0 | 0.00 | 0.00 | 0.00 | 65 | 1015.5 |
| 20260502151537 | 46 | 0 | 0.0 | 3.0 | 0.00 | 0.00 | 0.00 | 63 | 1015.6 |
| 20260502151037 | 46 | 0 | 0.0 | 6.0 | 0.00 | 0.00 | 0.00 | 65 | 1015.3 |
| 20260502150537 | 46 | 0 | 0.0 | 8.0 | 0.00 | 0.00 | 0.00 | 63 | 1015.2 |
| 20260502130334 | 46 | 340 | 4.0 | 11.0 | 0.00 | 0.00 | 0.00 | 70 | 1014.4 |
| 20260502123249 | 46 | 353 | 5.0 | 10.0 | 0.00 | 0.00 | 0.00 | 76 | 1014.0 |
| 20260502122748 | 46 | 347 | 4.0 | 15.0 | 0.00 | 0.00 | 0.00 | 76 | 1013.9 |
| 20260502122248 | 46 | 341 | 3.0 | 15.0 | 0.00 | 0.00 | 0.00 | 76 | 1014.0 |
| 20260502121750 | 46 | 342 | 5.0 | 12.0 | 0.00 | 0.00 | 0.00 | 76 | 1014.0 |
| 20260502121249 | 46 | 340 | 6.0 | 11.0 | 0.00 | 0.00 | 0.00 | 77 | 1013.9 |
| 20260502120748 | 46 | 341 | 3.0 | 11.0 | 0.00 | 0.00 | 0.00 | 78 | 1014.1 |
| 20260502120249 | 46 | 341 | 1.0 | 10.0 | 0.00 | 0.00 | 0.00 | 78 | 1014.2 |
| 20260502115749 | 46 | 0 | 0.0 | 9.0 | 0.00 | 0.00 | 0.00 | 78 | 1014.2 |
| 20260502115248 | 46 | 341 | 1.0 | 9.0 | 0.00 | 0.00 | 0.00 | 77 | 1014.2 |
| 20260502114748 | 46 | 341 | 1.0 | 5.0 | 0.00 | 0.00 | 0.00 | 76 | 1014.3 |
| 20260502114248 | 46 | 0 | 0.0 | 9.0 | 0.00 | 0.00 | 0.00 | 75 | 1014.2 |
| 20260502113748 | 46 | 0 | 0.0 | 9.0 | 0.00 | 0.00 | 0.00 | 74 | 1014.1 |
| 20260502113248 | 46 | 0 | 0.0 | 10.0 | 0.00 | 0.00 | 0.00 | 74 | 1014.1 |
| 20260502112748 | 46 | 340 | 1.0 | 10.0 | 0.00 | 0.00 | 0.00 | 75 | 1014.0 |
| 20260502112248 | 46 | 0 | 0.0 | 10.0 | 0.00 | 0.00 | 0.00 | 76 | 1014.0 |
| 20260502111748 | 46 | 340 | 1.0 | 9.0 | 0.00 | 0.00 | 0.00 | 76 | 1014.0 |
| 20260502111248 | 46 | 340 | 1.0 | 8.0 | 0.00 | 0.00 | 0.00 | 77 | 1013.9 |
| 20260502110748 | 46 | 340 | 2.0 | 8.0 | 0.00 | 0.00 | 0.00 | 78 | 1013.8 |
| 20260502110250 | 46 | 0 | 0.0 | 0.0 | 0.00 | 0.00 | 0.00 | 79 | 1013.9 |
| 20260502105511 | 46 | 340 | 2.0 | 9.0 | 0.00 | 0.00 | 0.00 | 79 | 1013.8 |
| 20260502105010 | 46 | 340 | 3.0 | 8.0 | 0.00 | 0.00 | 0.00 | 80 | 1013.8 |
| 20260502104509 | 46 | 340 | 2.0 | 5.0 | 0.00 | 0.00 | 0.00 | 80 | 1013.8 |
| 20260502104009 | 46 | 0 | 0.0 | 4.0 | 0.00 | 0.00 | 0.00 | 80 | 1013.8 |
| 20260502103514 | 46 | 0 | 0.0 | 0.0 | 0.00 | 0.00 | 0.00 | 81 | 1013.7 |
| 20260502102438 | 46 | 0 | 0.0 | 6.0 | 0.00 | 0.00 | 0.00 | 80 | 1013.7 |
| 20260502101938 | 46 | 0 | 0.0 | 10.0 | 0.00 | 0.00 | 0.00 | 80 | 1013.9 |
| 20260502101438 | 46 | 340 | 2.0 | 10.0 | 0.00 | 0.00 | 0.00 | 80 | 1013.9 |
| 20260502100938 | 46 | 340 | 3.0 | 9.0 | 0.00 | 0.00 | 0.00 | 80 | 1013.9 |
| 20260502100438 | 46 | 340 | 3.0 | 9.0 | 0.00 | 0.00 | 0.00 | 79 | 1013.8 |
| 20260502091121 | 47 | 344 | 4.0 | 17.0 | 0.00 | 0.00 | 0.00 | 80 | 1013.8 |
| 20260502090621 | 47 | 354 | 8.0 | 18.0 | 0.00 | 0.00 | 0.00 | 80 | 1013.8 |
| 20260502090121 | 47 | 343 | 12.0 | 19.0 | 0.00 | 0.00 | 0.00 | 79 | 1013.6 |
| 20260502071121 | 49 | 325 | 5.0 | 9.0 | 0.00 | 0.00 | 0.00 | 81 | 1013.0 |
| 20260502070621 | 49 | 333 | 6.0 | 10.0 | 0.00 | 0.00 | 0.00 | 81 | 1013.0 |
| 20260502070121 | 49 | 330 | 5.0 | 10.0 | 0.00 | 0.00 | 0.00 | 81 | 1013.0 |
| 20260502065623 | 49 | 339 | 5.0 | 9.0 | 0.00 | 0.00 | 0.00 | 82 | 1013.1 |
| 20260502065153 | 49 | 334 | 5.0 | 10.0 | 0.00 | 0.00 | 0.00 | 83 | 1013.2 |
| 20260502065121 | 49 | 334 | 5.0 | 10.0 | 0.00 | 0.00 | 0.00 | 83 | 1013.2 |
| 20260502064621 | 49 | 334 | 6.0 | 10.0 | 0.00 | 0.00 | 0.00 | 82 | 1013.3 |
| 20260502064121 | 49 | 337 | 5.0 | 9.0 | 0.00 | 0.00 | 0.00 | 81 | 1013.2 |
| 20260502063621 | 49 | 323 | 5.0 | 9.0 | 0.00 | 0.00 | 0.00 | 82 | 1013.3 |
| 20260502063121 | 49 | 339 | 5.0 | 12.0 | 0.00 | 0.00 | 0.00 | 82 | 1013.4 |
| 20260502062621 | 49 | 334 | 6.0 | 12.0 | 0.00 | 0.00 | 0.00 | 82 | 1013.5 |
| 20260502062121 | 49 | 327 | 5.0 | 11.0 | 0.00 | 0.00 | 0.00 | 82 | 1013.5 |
| 20260502061621 | 50 | 344 | 6.0 | 12.0 | 0.00 | 0.00 | 0.00 | 83 | 1013.6 |
| 20260502061121 | 50 | 337 | 6.0 | 12.0 | 0.00 | 0.00 | 0.00 | 83 | 1013.6 |
| 20260502060621 | 50 | 331 | 6.0 | 11.0 | 0.00 | 0.00 | 0.00 | 83 | 1013.6 |
| 20260502060121 | 50 | 338 | 6.0 | 11.0 | 0.00 | 0.00 | 0.00 | 84 | 1013.6 |
| 20260502055621 | 50 | 336 | 7.0 | 11.0 | 0.00 | 0.00 | 0.00 | 85 | 1013.6 |
| 20260502055121 | 50 | 334 | 5.0 | 11.0 | 0.00 | 0.00 | 0.00 | 86 | 1013.6 |
| 20260502054622 | 50 | 345 | 6.0 | 11.0 | 0.00 | 0.00 | 0.00 | 87 | 1013.6 |
| 20260502054121 | 50 | 350 | 6.0 | 10.0 | 0.00 | 0.00 | 0.00 | 88 | 1013.6 |
| 20260502053621 | 50 | 333 | 6.0 | 9.0 | 0.00 | 0.00 | 0.00 | 89 | 1013.6 |
| 20260502053121 | 50 | 335 | 5.0 | 10.0 | 0.00 | 0.00 | 0.00 | 89 | 1013.6 |
| 20260502052621 | 50 | 322 | 6.0 | 10.0 | 0.00 | 0.00 | 0.00 | 90 | 1013.7 |
| 20260502052121 | 49 | 325 | 5.0 | 9.0 | 0.00 | 0.00 | 0.00 | 91 | 1013.7 |
| 20260502051622 | 49 | 328 | 5.0 | 8.0 | 0.00 | 0.00 | 0.00 | 91 | 1013.6 |
| 20260502051121 | 49 | 332 | 4.0 | 8.0 | 0.00 | 0.00 | 0.00 | 91 | 1013.7 |
| 20260502050621 | 49 | 333 | 3.0 | 8.0 | 0.00 | 0.00 | 0.00 | 91 | 1013.7 |
| 20260502050122 | 49 | 335 | 4.0 | 8.0 | 0.00 | 0.00 | 0.00 | 91 | 1013.7 |
| 20260502045621 | 49 | 338 | 4.0 | 8.0 | 0.00 | 0.00 | 0.00 | 90 | 1013.8 |
| 20260502045121 | 50 | 336 | 3.0 | 5.0 | 0.00 | 0.00 | 0.00 | 88 | 1013.9 |
| 20260502044621 | 50 | 0 | 0.0 | 4.0 | 0.00 | 0.00 | 0.00 | 87 | 1014.0 |
| 20260502044121 | 51 | 0 | 0.0 | 4.0 | 0.00 | 0.00 | 0.00 | 86 | 1014.0 |
| 20260502043621 | 52 | 0 | 0.0 | 5.0 | 0.00 | 0.00 | 0.00 | 85 | 1013.9 |
| 20260502043121 | 52 | 0 | 0.0 | 5.0 | 0.00 | 0.00 | 0.00 | 85 | 1014.1 |
| 20260502042214 | 51 | 0 | 0.0 | 6.0 | 0.00 | 0.00 | 0.00 | 86 | 1013.8 |
| 20260502041714 | 51 | 0 | 0.0 | 6.0 | 0.00 | 0.00 | 0.00 | 86 | 1013.8 |
| 20260502041214 | 51 | 0 | 0.0 | 6.0 | 0.00 | 0.00 | 0.00 | 86 | 1013.7 |
| 20260502040714 | 51 | 217 | 1.0 | 6.0 | 0.00 | 0.00 | 0.00 | 86 | 1013.8 |
| 20260502040214 | 51 | 0 | 0.0 | 5.0 | 0.00 | 0.00 | 0.00 | 86 | 1013.8 |
| 20260502035714 | 51 | 0 | 0.0 | 7.0 | 0.00 | 0.00 | 0.00 | 86 | 1013.7 |
| 20260502035214 | 51 | 203 | 1.0 | 7.0 | 0.00 | 0.00 | 0.00 | 85 | 1013.8 |
| 20260502034714 | 51 | 204 | 2.0 | 9.0 | 0.00 | 0.00 | 0.00 | 85 | 1013.9 |
| 20260502034214 | 51 | 204 | 1.0 | 9.0 | 0.00 | 0.00 | 0.00 | 85 | 1013.9 |
| 20260502033714 | 51 | 199 | 1.0 | 8.0 | 0.00 | 0.00 | 0.00 | 85 | 1013.8 |
| 20260502033214 | 51 | 201 | 3.0 | 9.0 | 0.00 | 0.00 | 0.00 | 86 | 1014.0 |
| 20260502032714 | 51 | 202 | 4.0 | 9.0 | 0.00 | 0.00 | 0.00 | 86 | 1014.0 |
| 20260502032214 | 51 | 201 | 4.0 | 12.0 | 0.00 | 0.00 | 0.00 | 87 | 1014.0 |
| 20260502031714 | 51 | 199 | 6.0 | 12.0 | 0.00 | 0.00 | 0.00 | 87 | 1014.0 |
| 20260502031214 | 51 | 196 | 4.0 | 11.0 | 0.00 | 0.00 | 0.00 | 87 | 1014.0 |
| 20260502030714 | 51 | 176 | 2.0 | 7.0 | 0.00 | 0.00 | 0.00 | 86 | 1014.0 |
| 20260502030214 | 51 | 182 | 3.0 | 11.0 | 0.00 | 0.00 | 0.00 | 86 | 1014.0 |
| 20260502025714 | 51 | 183 | 5.0 | 11.0 | 0.00 | 0.00 | 0.00 | 86 | 1014.0 |
| 20260502025214 | 51 | 186 | 4.0 | 9.0 | 0.00 | 0.00 | 0.00 | 85 | 1013.9 |
| 20260502024714 | 51 | 191 | 3.0 | 14.0 | 0.00 | 0.00 | 0.00 | 85 | 1014.0 |
| 20260502024214 | 51 | 189 | 5.0 | 22.0 | 0.00 | 0.00 | 0.00 | 85 | 1014.0 |
| 20260502023714 | 52 | 192 | 5.0 | 22.0 | 0.00 | 0.00 | 0.00 | 84 | 1014.0 |
| 20260502023214 | 52 | 186 | 7.0 | 16.0 | 0.00 | 0.00 | 0.00 | 84 | 1013.9 |
| 20260502022714 | 52 | 193 | 7.0 | 17.0 | 0.00 | 0.00 | 0.00 | 84 | 1013.8 |
| 20260502022214 | 52 | 189 | 7.0 | 17.0 | 0.00 | 0.00 | 0.00 | 83 | 1013.9 |
| 20260502021716 | 52 | 196 | 8.0 | 15.0 | 0.00 | 0.00 | 0.00 | 83 | 1013.7 |
| 20260502021215 | 52 | 183 | 6.0 | 14.0 | 0.00 | 0.00 | 0.00 | 82 | 1013.7 |
| 20260502020715 | 52 | 195 | 7.0 | 15.0 | 0.00 | 0.00 | 0.00 | 82 | 1013.7 |
| 20260502020216 | 52 | 191 | 7.0 | 15.0 | 0.00 | 0.00 | 0.00 | 81 | 1013.6 |
| 20260502015715 | 52 | 195 | 6.0 | 13.0 | 0.00 | 0.00 | 0.00 | 81 | 1013.5 |
| 20260502015214 | 53 | 185 | 5.0 | 13.0 | 0.00 | 0.00 | 0.00 | 80 | 1013.4 |
| 20260502014714 | 53 | 189 | 7.0 | 13.0 | 0.00 | 0.00 | 0.00 | 80 | 1013.4 |
| 20260502014216 | 53 | 178 | 7.0 | 14.0 | 0.00 | 0.00 | 0.00 | 79 | 1013.3 |
| 20260502013714 | 53 | 185 | 7.0 | 14.0 | 0.00 | 0.00 | 0.00 | 79 | 1013.4 |
| 20260502013214 | 53 | 182 | 4.0 | 11.0 | 0.00 | 0.00 | 0.00 | 78 | 1013.5 |
| 20260502012716 | 53 | 189 | 4.0 | 11.0 | 0.00 | 0.00 | 0.00 | 77 | 1013.5 |
| 20260502012217 | 54 | 197 | 7.0 | 11.0 | 0.00 | 0.00 | 0.00 | 77 | 1013.4 |
| 20260502011716 | 54 | 188 | 5.0 | 12.0 | 0.00 | 0.00 | 0.00 | 76 | 1013.5 |
| 20260502011216 | 54 | 191 | 7.0 | 12.0 | 0.00 | 0.00 | 0.00 | 76 | 1013.4 |
| 20260502010714 | 54 | 196 | 4.0 | 11.0 | 0.00 | 0.00 | 0.00 | 75 | 1013.4 |
| 20260502010215 | 54 | 195 | 6.0 | 12.0 | 0.00 | 0.00 | 0.00 | 75 | 1013.2 |
| 20260502005714 | 55 | 193 | 5.0 | 12.0 | 0.00 | 0.00 | 0.00 | 74 | 1013.3 |
| 20260502005215 | 55 | 198 | 5.0 | 13.0 | 0.00 | 0.00 | 0.00 | 74 | 1013.2 |
| 20260502004714 | 55 | 201 | 7.0 | 13.0 | 0.00 | 0.00 | 0.00 | 73 | 1013.1 |
| 20260502004214 | 55 | 198 | 6.0 | 11.0 | 0.00 | 0.00 | 0.00 | 73 | 1012.8 |
| 20260502003714 | 55 | 195 | 6.0 | 12.0 | 0.00 | 0.00 | 0.00 | 73 | 1012.6 |
| 20260502003214 | 55 | 198 | 6.0 | 12.0 | 0.00 | 0.00 | 0.00 | 72 | 1012.6 |
| 20260502002714 | 55 | 193 | 5.0 | 12.0 | 0.00 | 0.00 | 0.00 | 72 | 1012.7 |
| 20260502002214 | 56 | 197 | 6.0 | 12.0 | 0.00 | 0.00 | 0.00 | 72 | 1012.5 |
| 20260502000837 | 56 | 203 | 5.0 | 10.0 | 0.00 | 0.00 | 0.00 | 71 | 1012.6 |
| 20260502000339 | 56 | 202 | 4.0 | 12.0 | 0.00 | 0.00 | 0.00 | 70 | 1012.4 |
| 20260501235837 | 56 | 199 | 5.0 | 12.0 | 0.00 | 0.00 | 0.00 | 70 | 1012.3 |
| 20260501235337 | 57 | 198 | 4.0 | 9.0 | 0.00 | 0.00 | 0.00 | 70 | 1012.2 |
| 20260501234838 | 57 | 197 | 6.0 | 9.0 | 0.00 | 0.00 | 0.00 | 69 | 1012.0 |
| 20260501234337 | 57 | 200 | 3.0 | 9.0 | 0.00 | 0.00 | 0.00 | 69 | 1012.0 |
| 20260501233837 | 57 | 200 | 2.0 | 9.0 | 0.00 | 0.00 | 0.00 | 69 | 1012.0 |
| 20260501233337 | 57 | 193 | 3.0 | 10.0 | 0.00 | 0.00 | 0.00 | 68 | 1012.1 |
| 20260501232837 | 57 | 198 | 4.0 | 10.0 | 0.00 | 0.00 | 0.00 | 68 | 1012.1 |
| 20260501232337 | 57 | 196 | 3.0 | 10.0 | 0.00 | 0.00 | 0.00 | 67 | 1012.1 |
| 20260501231837 | 58 | 199 | 4.0 | 10.0 | 0.00 | 0.00 | 0.00 | 66 | 1012.1 |
| 20260501231337 | 58 | 193 | 4.0 | 8.0 | 0.00 | 0.00 | 0.00 | 65 | 1012.0 |
| 20260501230837 | 58 | 191 | 4.0 | 8.0 | 0.00 | 0.00 | 0.00 | 64 | 1012.1 |
| 20260501230338 | 58 | 188 | 2.0 | 10.0 | 0.00 | 0.00 | 0.00 | 63 | 1012.1 |
| 20260501225837 | 58 | 198 | 3.0 | 10.0 | 0.00 | 0.00 | 0.00 | 62 | 1012.1 |
| 20260501225337 | 58 | 197 | 3.0 | 10.0 | 0.00 | 0.00 | 0.00 | 62 | 1012.1 |
| 20260501224837 | 58 | 203 | 6.0 | 11.0 | 0.00 | 0.00 | 0.00 | 62 | 1012.0 |
| 20260501224337 | 58 | 198 | 4.0 | 11.0 | 0.00 | 0.00 | 0.00 | 62 | 1012.1 |
| 20260501223837 | 58 | 196 | 3.0 | 11.0 | 0.00 | 0.00 | 0.00 | 62 | 1012.1 |
| 20260501223337 | 59 | 194 | 3.0 | 11.0 | 0.00 | 0.00 | 0.00 | 62 | 1012.2 |
| 20260501222836 | 59 | 194 | 2.0 | 10.0 | 0.00 | 0.00 | 0.00 | 61 | 1012.3 |
| 20260501222337 | 59 | 193 | 4.0 | 10.0 | 0.00 | 0.00 | 0.00 | 62 | 1012.3 |
| 20260501221836 | 59 | 0 | 0.0 | 10.0 | 0.00 | 0.00 | 0.00 | 62 | 1012.4 |
| 20260501221336 | 59 | 197 | 3.0 | 15.0 | 0.00 | 0.00 | 0.00 | 60 | 1012.2 |
| 20260501220836 | 59 | 200 | 4.0 | 15.0 | 0.00 | 0.00 | 0.00 | 61 | 1012.3 |
| 20260501215903 | 59 | 201 | 3.0 | 12.0 | 0.00 | 0.00 | 0.00 | 59 | 1012.4 |
| 20260501215002 | 60 | 197 | 2.0 | 8.0 | 0.00 | 0.00 | 0.00 | 59 | 1012.5 |
| 20260501214500 | 60 | 199 | 1.0 | 8.0 | 0.00 | 0.00 | 0.00 | 59 | 1012.6 |
| 20260501214002 | 60 | 200 | 1.0 | 8.0 | 0.00 | 0.00 | 0.00 | 58 | 1012.6 |
| 20260501213500 | 60 | 191 | 1.0 | 7.0 | 0.00 | 0.00 | 0.00 | 59 | 1012.6 |
| 20260501213000 | 60 | 191 | 1.0 | 7.0 | 0.00 | 0.00 | 0.00 | 59 | 1012.7 |
| 20260501212500 | 60 | 198 | 2.0 | 7.0 | 0.00 | 0.00 | 0.00 | 59 | 1012.6 |
| 20260501212000 | 60 | 198 | 1.0 | 9.0 | 0.00 | 0.00 | 0.00 | 59 | 1012.7 |
| 20260501211500 | 60 | 195 | 4.0 | 9.0 | 0.00 | 0.00 | 0.00 | 58 | 1012.7 |
| 20260501211001 | 60 | 0 | 0.0 | 9.0 | 0.00 | 0.00 | 0.00 | 60 | 1012.6 |
| 20260501210500 | 60 | 195 | 4.0 | 9.0 | 0.00 | 0.00 | 0.00 | 58 | 1012.8 |
| 20260501210000 | 60 | 203 | 3.0 | 10.0 | 0.00 | 0.00 | 0.00 | 58 | 1012.8 |
| 20260501205500 | 60 | 198 | 3.0 | 10.0 | 0.00 | 0.00 | 0.00 | 57 | 1012.8 |
| 20260501205000 | 60 | 194 | 2.0 | 10.0 | 0.00 | 0.00 | 0.00 | 57 | 1012.8 |
| 20260501204500 | 60 | 189 | 3.0 | 10.0 | 0.00 | 0.00 | 0.00 | 58 | 1012.7 |
| 20260501204002 | 60 | 194 | 2.0 | 9.0 | 0.00 | 0.00 | 0.00 | 58 | 1012.8 |
| 20260501203500 | 60 | 192 | 3.0 | 9.0 | 0.00 | 0.00 | 0.00 | 57 | 1012.8 |
| 20260501203000 | 60 | 181 | 2.0 | 11.0 | 0.00 | 0.00 | 0.00 | 56 | 1012.9 |
| 20260501202500 | 60 | 187 | 3.0 | 11.0 | 0.00 | 0.00 | 0.00 | 57 | 1013.0 |
| 20260501202000 | 60 | 181 | 3.0 | 9.0 | 0.00 | 0.00 | 0.00 | 56 | 1013.2 |
| 20260501201501 | 60 | 196 | 3.0 | 8.0 | 0.00 | 0.00 | 0.00 | 56 | 1013.2 |
| 20260501201002 | 60 | 192 | 1.0 | 10.0 | 0.00 | 0.00 | 0.00 | 57 | 1013.3 |
| 20260501200502 | 60 | 196 | 4.0 | 10.0 | 0.00 | 0.00 | 0.00 | 56 | 1013.2 |
| 20260501200000 | 61 | 188 | 3.0 | 9.0 | 0.00 | 0.00 | 0.00 | 54 | 1013.3 |
| 20260501195502 | 61 | 190 | 3.0 | 10.0 | 0.00 | 0.00 | 0.00 | 54 | 1013.4 |
| 20260501195000 | 60 | 198 | 3.0 | 10.0 | 0.00 | 0.00 | 0.00 | 54 | 1013.6 |
| 20260501194500 | 60 | 171 | 4.0 | 11.0 | 0.00 | 0.00 | 0.00 | 52 | 1013.6 |
| 20260501194000 | 60 | 193 | 5.0 | 11.0 | 0.00 | 0.00 | 0.00 | 53 | 1013.6 |
| 20260501193500 | 61 | 199 | 4.0 | 10.0 | 0.00 | 0.00 | 0.00 | 52 | 1013.8 |
| 20260501193000 | 61 | 177 | 4.0 | 10.0 | 0.00 | 0.00 | 0.00 | 51 | 1013.7 |
| 20260501192500 | 61 | 177 | 3.0 | 10.0 | 0.00 | 0.00 | 0.00 | 51 | 1013.9 |
| 20260501192001 | 61 | 191 | 2.0 | 12.0 | 0.00 | 0.00 | 0.00 | 54 | 1014.2 |
| 20260501191502 | 61 | 172 | 5.0 | 12.0 | 0.00 | 0.00 | 0.00 | 51 | 1014.3 |